Location: Bergnershof
(48.9468°N, 10.9431°E)
Time: 11:42:34
(UTC+00:00)

SL-8 Rocket - Pass Details

Date: 03 March 2021
Orbit: 957 x 991 km, 82.9° (Epoch: 13 April)

Event Time Altitude Azimuth Distance (km) Brightness Sun altitude
Rises 18:06:49 0° 160° (SSE) 3,669 6.8 -11.3°
Reaches altitude 10° 18:09:30 10° 152° (SSE) 2,720 6.0 -11.7°
Maximum altitude 18:15:07 37° 88° (E) 1,473 4.5 -12.6°
Drops below altitude 10° 18:20:43 10° 23° (NNE) 2,716 6.2 -13.5°
Sets 18:23:23 0° 16° (NNE) 3,663 6.9 -14.0°
